Weather History for KBYI - October, 2012

Change the Weather History Date:

Monday, October 15, 2012

  Actual Average Record
Temperature  
Mean Temperature 59 °F 48 °F  
Max Temperature 68 °F 61 °F 82 °F (1958)
Min Temperature 49 °F 35 °F 17 °F (1970)
Degree Days  
Heating Degree Days 6 17  
Month to date heating degree days 196 220  
Since 1 July heating degree days 288 490  
Cooling Degree Days 0 0  
Month to date cooling degree days 0 0  
Year to date cooling degree days 546 365  
Growing Degree Days 9 (Base 50)    
Moisture  
Dew Point 40 °F    
Average Humidity 54    
Maximum Humidity 68    
Minimum Humidity 39    
Precipitation  
Precipitation 0.00 in 0.02 in 0.42 in (1980)
Month to date precipitation T 0.34  
Year to date precipitation 6.80 7.65  
Sea Level Pressure  
Sea Level Pressure 29.97 in    
Wind  
Wind Speed 11 mph (SW)    
Max Wind Speed 22 mph    
Max Gust Speed 28 mph    
Visibility 10 miles    
Events      
T = Trace of Precipitation, MM = Missing Value Source: NWS Daily Summary

Daily Weather History Graph

Daily Weather History Graph

Search for Another Location

Airport or City:

Trip Planner

Search our weather history database for the weather conditions in past years. The results will help you decide how hot, cold, wet, or windy it might be!

Date:

Astronomy

Oct. 15, 2012 Rise Set
Actual Time 7:48 AM MDT 6:51 PM MDT
Civil Twilight 7:20 AM MDT 7:20 PM MDT
Nautical Twilight 6:47 AM MDT 7:52 PM MDT
Astronomical Twilight 6:15 AM MDT 8:25 PM MDT
Moon 8:05 AM MDT (10/15) 6:52 PM MDT (10/15)
Length of Visible Light 11h 59m
Length of Day
11h 03m
New Moon, 0% of the Moon is Illuminated
Oct 15
New Moon
Oct 21
First Quarter
Oct 29
Full
Nov 6
Last Quarter
Nov 13
New

Hourly Weather History & Observations

Time (MDT) Temp. Dew Point Humidity Pressure Visibility Wind Dir Wind Speed Gust Speed Precip Events Conditions
12:53 AM 57.0 °F 37.0 °F 47% 30.01 in 10.0 mi SSW 16.1 mph - N/A   Clear
1:53 AM 57.9 °F 37.0 °F 46% 29.98 in 10.0 mi SSW 19.6 mph 24.2 mph N/A   Clear
2:53 AM 57.0 °F 37.0 °F 47% 29.97 in 10.0 mi SSW 19.6 mph - N/A   Clear
3:53 AM 57.9 °F 37.0 °F 46% 29.94 in 10.0 mi SSW 18.4 mph 26.5 mph N/A   Clear
4:53 AM 57.0 °F 37.0 °F 47% 29.93 in 10.0 mi SSW 17.3 mph - N/A   Clear
5:53 AM 57.9 °F 37.0 °F 46% 29.93 in 10.0 mi SSW 18.4 mph - N/A   Clear
6:53 AM 55.9 °F 37.0 °F 49% 29.96 in 10.0 mi SSW 15.0 mph - N/A   Clear
7:53 AM 53.1 °F 37.0 °F 55% 29.99 in 10.0 mi SW 11.5 mph - N/A   Clear
8:53 AM 57.9 °F 34.0 °F 41% 30.01 in 6.0 mi West 6.9 mph - N/A   Haze
9:53 AM 59.0 °F 37.0 °F 44% 30.05 in 10.0 mi WSW 16.1 mph 23.0 mph N/A   Overcast
10:53 AM 63.0 °F 37.9 °F 40% 30.04 in 10.0 mi West 18.4 mph 25.3 mph N/A   Partly Cloudy
11:53 AM 62.1 °F 42.1 °F 48% 30.04 in 10.0 mi West 16.1 mph 24.2 mph N/A   Mostly Cloudy
12:53 PM 64.9 °F 42.1 °F 43% 30.02 in 10.0 mi West 12.7 mph 25.3 mph N/A   Scattered Clouds
1:53 PM 64.9 °F 43.0 °F 45% 30.00 in 10.0 mi West 13.8 mph 20.7 mph N/A   Mostly Cloudy
2:53 PM 63.0 °F 43.0 °F 48% 29.99 in 10.0 mi West 12.7 mph - N/A   Partly Cloudy
3:53 PM 66.9 °F 43.0 °F 42% 29.96 in 10.0 mi WNW 11.5 mph - N/A   Clear
4:53 PM 66.0 °F 45.0 °F 47% 29.94 in 10.0 mi West 9.2 mph - N/A   Clear
5:53 PM 66.0 °F 43.0 °F 43% 29.93 in 10.0 mi West 3.5 mph - N/A   Clear
6:53 PM 61.0 °F 43.0 °F 52% 29.91 in 10.0 mi West 3.5 mph - N/A   Clear
7:53 PM 54.0 °F 42.1 °F 64% 29.97 in 10.0 mi WSW 6.9 mph - N/A   Clear
8:53 PM 57.0 °F 42.1 °F 57% 29.94 in 10.0 mi South 4.6 mph - N/A   Scattered Clouds
10:53 PM 52.0 °F 41.0 °F 66% 29.92 in 10.0 mi Calm Calm - N/A   Clear
11:53 PM 51.1 °F 41.0 °F 68% 29.91 in 10.0 mi South 6.9 mph - N/A   Clear